TimeMST,TemperatureF,Dew PointF,Humidity,Sea Level PressureIn,VisibilityMPH,Wind Direction,Wind SpeedMPH,Gust SpeedMPH,PrecipitationIn,Events,Conditions,WindDirDegrees,DateUTC
12:53 AM,16.0,-7.1,36,29.87,10.0,NW,13.8,-,N/A,,Clear,310,2012-12-19 07:53:00
1:53 AM,15.1,-6.0,39,29.89,10.0,NNW,8.1,-,N/A,,Clear,330,2012-12-19 08:53:00
2:53 AM,16.0,-9.0,32,29.91,10.0,NNW,11.5,-,N/A,,Clear,330,2012-12-19 09:53:00
3:53 AM,14.0,-7.1,39,29.92,10.0,NW,11.5,-,N/A,,Clear,310,2012-12-19 10:53:00
4:53 AM,10.0,-8.0,44,29.97,10.0,NW,11.5,-,N/A,,Clear,320,2012-12-19 11:53:00
5:53 AM,8.1,-8.0,48,30.01,10.0,NW,13.8,-,N/A,,Clear,320,2012-12-19 12:53:00
6:53 AM,8.1,-7.1,50,30.06,10.0,NW,12.7,-,N/A,,Clear,310,2012-12-19 13:53:00
7:53 AM,7.0,-8.0,51,30.08,10.0,NW,12.7,-,N/A,,Clear,310,2012-12-19 14:53:00
8:53 AM,12.0,-8.0,41,30.09,10.0,NW,13.8,-,N/A,,Clear,310,2012-12-19 15:53:00
9:53 AM,17.1,-8.0,33,30.12,10.0,WNW,13.8,-,N/A,,Clear,300,2012-12-19 16:53:00
10:53 AM,19.9,-9.9,26,30.12,10.0,WNW,9.2,-,N/A,,Clear,290,2012-12-19 17:53:00
11:53 AM,23.0,-11.9,21,30.11,10.0,NNW,5.8,-,N/A,,Clear,340,2012-12-19 18:53:00
12:53 PM,24.1,-11.0,21,30.11,10.0,ENE,10.4,-,N/A,,Clear,60,2012-12-19 19:53:00
1:53 PM,25.0,-9.9,21,30.11,10.0,ENE,4.6,-,N/A,,Clear,60,2012-12-19 20:53:00
2:53 PM,27.0,-15.0,15,30.10,10.0,NW,25.3,34.5,0.00,Snow,Light Snow,310,2012-12-19 21:53:00
3:53 PM,24.1,-9.0,23,30.14,10.0,NW,17.3,-,0.00,,Clear,310,2012-12-19 22:53:00
4:53 PM,19.9,-9.0,27,30.19,10.0,NW,20.7,26.5,N/A,,Clear,310,2012-12-19 23:53:00
5:53 PM,19.0,-8.0,30,30.22,10.0,WNW,23.0,33.4,N/A,,Clear,290,2012-12-20 00:53:00
6:53 PM,17.6,-9.4,30,30.03,10.0,West,19.6,-,N/A,,Clear,280,2012-12-20 01:53:00
7:53 PM,17.1,-9.0,31,30.27,10.0,West,18.4,-,N/A,,Clear,280,2012-12-20 02:53:00
8:53 PM,18.0,-8.0,31,30.25,10.0,West,29.9,36.8,N/A,,Clear,280,2012-12-20 03:53:00
9:53 PM,12.9,-11.0,34,30.28,10.0,WSW,16.1,-,N/A,,Clear,250,2012-12-20 04:53:00
10:53 PM,18.0,-9.9,29,30.25,10.0,West,25.3,31.1,N/A,,Clear,280,2012-12-20 05:53:00
11:53 PM,12.9,-11.0,34,30.28,10.0,West,11.5,-,N/A,,Clear,260,2012-12-20 06:53:00